Regional Weather Roundup
Issued by NWS

Home | Current Version | Previous Version | Text Only | Print | Product List | Glossary Off
Versions: 1 2 3 4 5 6 7 8 9 10 11 12 13 14 15 16 17 18 19 20 21 22 23 24 25 26 27 28 29 30 31 32 33 34 35 36 37 38 39 40 41 42 43 44 45 46 47 48 49 50

000
ASUS43 KLSX 302210
RWRMO

WEATHER SUMMARY FOR MISSOURI
NATIONAL WEATHER SERVICE SPRINGFIELD MO
500 PM CDT SAT JUL 30 2016

NOTE: "FAIR" INDICATES FEW OR NO CLOUDS BELOW 12,000 FEET WITH NO
       SIGNIFICANT WEATHER AND/OR OBSTRUCTIONS TO VISIBILITY.
       CURRENT SKY AND/OR WEATHER CONDITIONS ARE NOT AVAILABLE FOR
       CHILLICOTHE AND FARMINGTON.

MOZ001>031-035>038-043-044-053-054-302300-
...NORTHERN AND WESTERN MISSOURI...

CITY           SKY/WX    TMP DP  RH WIND       PRES   REMARKS
KANSAS CTY INT CLOUDY    83  65  54 VRB5      29.96F
KANSAS C DTWN  CLOUDY    85  65  51 E6        29.94F
LEE`S SUMMIT   LGT RAIN  83  65  54 E6        29.96F
ST JOSEPH      CLOUDY    82  67  60 E7        29.97F
CHILLICOTHE      N/A     83  65  54 CALM      29.99F
KIRKSVILLE     SUNNY     82  63  52 W5        29.99F

$$
MOZ066>068-077>081-088>096-101>105-302300-
...SOUTHWEST MISSOURI...

CITY           SKY/WX    TMP DP  RH WIND       PRES   REMARKS
SPRINGFIELD    CLOUDY    84  67  56 NE9       29.96F
JOPLIN         PTSUNNY   86  67  52 E7        29.94F
BRANSON        CLOUDY    79  73  83 E6        29.99F

$$
MOZ032>034-039>042-045>050-055>058-069>072-302300-
...CENTRAL MISSOURI...

CITY           SKY/WX    TMP DP  RH WIND       PRES   REMARKS
COLUMBIA       SUNNY     83  65  54 NW8       29.99F
JEFFERSON CITY SUNNY     84  64  50 N8        29.97F
ROLLA          MOSUNNY   82  66  58 NW6       29.97F
SEDALIA        SUNNY     85  69  58 N6        29.99F
WHITEMAN AFB   MOSUNNY   83  69  61 NE5       29.96F
OSAGE BEACH    MOSUNNY   85  68  56 NW5       29.98F

$$
MOZ051-052-059>065-302300-
...EAST CENTRAL MISSOURI...

CITY           SKY/WX    TMP DP  RH WIND       PRES   REMARKS
ST LOUIS INTL  MOSUNNY   84  65  52 W10       29.97F
SPIRIT OF STL  MOSUNNY   86  68  54 NW9       29.95F
ST CHARLES     SUNNY     84  67  56 NW7       29.95F

$$
MOZ072>076-082>087-097>100-106>115-302300-
...SOUTH CENTRAL AND SOUTHEAST MISSOURI...

CITY           SKY/WX    TMP DP  RH WIND       PRES   REMARKS
CAPE GIRARDEAU SUNNY     86  71  60 SW6       29.95F HX  91
FARMINGTON     MOSUNNY   85  67  54 VRB6      29.99S
POPLAR BLUFF   CLOUDY    84  72  67 SW5       29.96S
WEST PLAINS    CLOUDY    85  67  54 W5        30.02S

$$



USA.gov is the U.S. government's official web portal to all federal, state and local government web resources and services.